Content
SEND FEEDBACK

Daily
Averages
Monthly
Summary
United States of America

LINCOLN, ILLINOIS


Home > North America > United States > Illinois
Elevation: 555 feet     Latitude: 40 09N     Longitude: 089 24W

WEATHER
 
SELECT A DAY
Number of Records: 328,835;   Date Range: 9/6/01 - 9/28/14
 
SHARE

PRINT THIS DATA

[ ← Previous Day ]
WEATHER ALMANAC - FEBRUARY 24, 2013
[ Next Day → ]
[ °C ]   °F
Weather ElementAverageHighLow
Temperature29.7 °F40.3 °F (3:15 pm)17.4 °F (4:55 am)
Dewpoint23.9 °F30.7 °F (5:35 pm)15.6 °F (4:55 am)
Humidity80.1 %94 % (4:15 am)62 % (1:35 pm)
Barometer30.09 in30.14 in (9:15 am)30.01 in (12:35 am)
Wind Speed2.4 mph6.9 mph (1:15 pm)
Weather ElementAverage
Visibility8.4 mi
Wind DirectionENE (78.6 °)

Weather ElementTotal
Precipitation---
Heating Degree Days36.2 (Base 65)
Averaged from 71 records on February 24, 2013
WEATHER CONDITIONS BREAKOUT
WIND DIRECTION BREAKOUT
WEATHER BY HOUR - FEBRUARY 24, 2013
[ °C ]   °F
Local TimeTemperatureDewpointHumidityBarometerVisibilityWind DirectionWind SpeedGust SpeedPrecipitationEventsConditions
12:35 AM23.0 °F19.0 °F85 %30.01 in10.0 miCalmClear
12:55 AM22.5 °F19.2 °F87 %30.02 in10.0 miCalmClear
1:15 AM23.2 °F19.4 °F85 %30.01 in10.0 miCalmClear
1:35 AM21.9 °F18.5 °F87 %30.03 in10.0 miCalmClear
1:55 AM21.6 °F18.0 °F86 %30.03 in10.0 miCalmClear
2:15 AM19.9 °F17.4 °F90 %30.03 in7.0 miCalmClear
2:35 AM20.3 °F18.7 °F93 %30.03 in7.0 miCalmClear
2:55 AM18.7 °F16.3 °F91 %30.03 in7.0 miCalmClear
3:15 AM18.3 °F16.5 °F93 %30.03 in7.0 miCalmClear
3:35 AM18.3 °F16.3 °F92 %30.03 in7.0 miCalmClear
3:55 AM19.0 °F17.4 °F93 %30.04 in5.0 miCalmClear
4:15 AM18.5 °F17.1 °F94 %30.04 in5.0 miCalmClear
4:35 AM18.5 °F16.9 °F93 %30.05 in5.0 miCalmClear
4:55 AM17.4 °F15.6 °F93 %30.05 in5.0 miCalmClear
5:15 AM18.0 °F16.5 °F94 %30.06 in5.0 miCalmClear
5:35 AM18.5 °F16.9 °F93 %30.07 in5.0 miCalmClear
5:55 AM18.7 °F17.2 °F94 %30.07 in5.0 miCalmClear
6:15 AM19.4 °F17.8 °F93 %30.08 in5.0 miCalmClear
6:35 AM19.4 °F17.6 °F93 %30.08 in5.0 miSW (230°)3.5 mphClear
6:55 AM19.4 °F17.6 °F93 %30.09 in4.0 miCalmClear
7:15 AM21.0 °F18.5 °F90 %30.10 in5.0 miCalmClear
7:35 AM22.6 °F19.4 °F87 %30.11 in5.0 miCalmClear
7:55 AM24.8 °F20.3 °F83 %30.12 in7.0 miCalmClear
8:15 AM27.1 °F20.1 °F75 %30.12 in10.0 miCalmClear
8:35 AM28.4 °F19.9 °F71 %30.13 in10.0 miCalmClear
8:55 AM29.7 °F19.9 °F67 %30.13 in10.0 miCalmClear
9:15 AM30.6 °F20.5 °F66 %30.14 in10.0 miCalmClear
9:35 AM31.1 °F21.4 °F67 %30.14 in10.0 miSouth (190°)3.5 mphClear
9:55 AM32.0 °F22.1 °F67 %30.13 in10.0 miSE (140°)3.5 mphClear
10:15 AM32.2 °F22.3 °F67 %30.12 in10.0 miCalmClear
10:35 AM32.9 °F22.5 °F65 %30.12 in10.0 miEast (80°)3.5 mphClear
10:55 AM33.1 °F23.4 °F67 %30.12 in10.0 miEast (90°)3.5 mphClear
11:15 AM34.0 °F24.1 °F67 %30.13 in10.0 miEast (100°)3.5 mphClear
11:35 AM34.7 °F24.8 °F67 %30.13 in10.0 miCalmClear
11:55 AM36.3 °F25.7 °F65 %30.13 in10.0 miSE (130°)3.5 mphClear
12:15 PM36.5 °F25.5 °F64 %30.13 in10.0 miSouth (170°)4.6 mphClear
12:35 PM37.2 °F26.8 °F66 %30.13 in10.0 miSouth (170°)4.6 mphClear
12:55 PM37.4 °F26.4 °F65 %30.13 in10.0 miSSE (160°)5.8 mphClear
1:15 PM38.3 °F27.0 °F64 %30.11 in10.0 miSouth (180°)6.9 mphClear
1:35 PM38.7 °F26.6 °F62 %30.11 in10.0 miSouth (180°)3.5 mphClear
1:55 PM39.2 °F27.9 °F64 %30.11 in10.0 miSouth (180°)4.6 mphClear
2:15 PM39.7 °F28.4 °F64 %30.10 in10.0 miSSE (150°)5.8 mphClear
2:35 PM39.7 °F28.4 °F64 %30.10 in10.0 miSSE (160°)3.5 mphClear
2:55 PM40.1 °F28.8 °F64 %30.10 in10.0 miSouth (180°)4.6 mphClear
3:15 PM40.3 °F28.9 °F64 %30.10 in10.0 miSSE (160°)5.8 mphClear
3:35 PM40.1 °F29.3 °F65 %30.10 in10.0 miSouth (190°)5.8 mphClear
3:55 PM40.1 °F29.3 °F65 %30.10 in10.0 miSouth (190°)4.6 mphClear
4:15 PM40.1 °F29.3 °F65 %30.09 in10.0 miSouth (170°)4.6 mphClear
4:35 PM39.6 °F29.1 °F66 %30.09 in10.0 miSSE (160°)3.5 mphClear
4:55 PM38.8 °F29.5 °F69 %30.09 in10.0 miSSE (160°)3.5 mphClear
5:15 PM37.8 °F30.2 °F74 %30.09 in10.0 miSSE (150°)4.6 mphClear
5:35 PM35.8 °F30.7 °F82 %30.10 in10.0 miSSE (150°)3.5 mphClear
5:55 PM34.7 °F29.7 °F82 %30.09 in10.0 miSE (140°)4.6 mphClear
6:15 PM34.0 °F30.4 °F87 %30.10 in10.0 miSSE (160°)3.5 mphClear
6:35 PM33.4 °F29.8 °F87 %30.10 in10.0 miSE (140°)4.6 mphClear
6:55 PM32.9 °F30.0 °F89 %30.10 in7.0 miCalmClear
7:15 PM33.1 °F29.7 °F87 %30.11 in7.0 miSE (130°)4.6 mphClear
7:35 PM32.5 °F29.3 °F88 %30.11 in7.0 miESE (120°)4.6 mphClear
7:55 PM32.0 °F30.2 °F93 %30.11 in7.0 miESE (120°)3.5 mphClear
8:15 PM32.0 °F28.9 °F88 %30.12 in7.0 miSE (130°)4.6 mphClear
8:35 PM31.8 °F28.6 °F88 %30.11 in7.0 miCalmClear
8:55 PM31.6 °F28.4 °F88 %30.11 in7.0 miEast (90°)4.6 mphClear
9:15 PM31.3 °F28.4 °F89 %30.11 in7.0 miEast (90°)5.8 mphClear
9:35 PM31.3 °F28.0 °F88 %30.11 in10.0 miEast (100°)5.8 mphClear
9:55 PM31.1 °F27.7 °F87 %30.12 in10.0 miEast (100°)4.6 mphClear
10:15 PM30.9 °F27.5 °F87 %30.12 in10.0 miEast (100°)3.5 mphClear
10:35 PM30.7 °F27.3 °F87 %30.11 in10.0 miEast (100°)3.5 mphClear
10:55 PM30.2 °F27.3 °F89 %30.11 in7.0 miENE (70°)3.5 mphClear
11:15 PM30.6 °F26.6 °F85 %30.10 in10.0 miEast (80°)3.5 mphClear
11:35 PM30.0 °F26.6 °F87 %30.10 in7.0 miEast (90°)3.5 mphClear
11:55 PM30.2 °F27.1 °F88 %30.10 in7.0 miCalmClear
Hourly data recorded from KAAA, located miles away from Lincoln, Illinois







STORIES FROM OUR PARTNERS